Probability
0 0 0 0 0 0 0 0 0 0 0 0 0 0 0 0 0 0 0 0 0 0 0 0 0 0 0 0 0 0 0 0 0 0 0 0 0 0
0 0 0 0 0 0 0 0 0 0 0 0 0 0 0 0 0 0 0 0 0 0 0 0 0 0 0 0 0 0 0 0 0 0 0 0 0 0
0 0 0 0 0 0 0 0 0 0 0 0 0 0 0 0 0 0 0 0 0 0 0 0 0 0 0 0 0 0 0 0 0 0 0 0 0 0
0 0 0 0 0 0 0 0 0 0 0 0 0 0 0 0 0 0 0 0 0 0 0 0 0 0 0 0 0 0 0 0 0 0 0 0 0 0
0 0 0 0 0 0 0 0 0 0 0 0 0 0 0 0 0 0 0 0 0 0 0 0 0 0 0 0 0 0 0 0 0 0 0 0 0 0
0 0 0 0 0 0 0 0 0 0 0 0 0 0 0 0 0 0 0 0 0 0 0 0 0 0 0 0 0 0 0 0 0 0 0 0 0 0
0 0 0 0 0 0 0 0 0 0 0 0 0 0 0 0 0 0 0 0 0 0 0 0 0 0 0 0 0 0 0 0 0 0 0 0 0 0
0 0 0 0 0 0 0 0 0 0 0 0 0 0 0 0 0 0 0 0 0 0 0 0 0 0 0 0 0 0 0 0 0 0 0 0 0 0
0 0 0 0 0 0 0 0 0 0 0 0 0 0 0 0 0 0 0 0 0 0 0 0 0 0 0 0 0 0 0 0 0 0 0 0 0 0
0 0 0 0 0 0 0 0 0 0 0 0 0 0 0 0 0 0 0 0 0 0 0 0 0 0 0 0 0 0 0 0 0 0 0 0 0 0
0 0 0 0 0 0 0 0 0 0 0 0 0 0 0 0 0 0 0 0 0 0 0 0 0 0 0 0 0 0 0 0 0 0 0 0 0 0
0 0 0 0 0 0 0 0 0 0 0 0 0 0 0 0 0 0 0 0 0 0 0 0 0 0 0 0 0 0 0 0 0 0 0 0 0 0
0 0 0 0 0 0 0 0 0 0 0 0 0 0 0 0 0 0 0 0 0 0 0 0 0 0 0 0 0 0 0 0 0 0 0 0 0 0
0 0 0 0 0 0 0 0 0 0 0 0 0 0 0 0 0 0 0 0 0 0 0 0 0 0 0 0 0 0 0 0 0 0 0 0 0 0
0 0 0 0 0 0 0 0 0 0 0 0 0 0 0 0 0 0 0 0 0 0 0 0 0 0 0 0 0 0 0 0 0 0 0 0 0 0
0 0 0 0 0 0 0 0 0 0 0 0 0 0 0 0 0 0 0 0 0 0 0 0 0 0 0 0 0 0 0 0 0 0 0 0 0 0
0 0 0 0 0 0 0 0 0 0 0 0 0 0 0 0 0 0 0 0 0 0 0 0 0 0 0 0 0 0 0 0 0 0 0 0 0 0
0 0 0 0 0 0 0 0 0 0 0 0 0 0 0 0 0 0 0 0 0 0 0 0 0 0 0 0 0 0 0 0 0 0 0 0 0 0
0 0 0 0 0 0 0 0 0 0 0 0 0 0 0 0 0 0 0 0 0 0 0 0 0 0 0 0 0 0 0 0 0 0 0 0 0 0
0 0 0 0 0 0 0 0 0 0 0 0 0 0 0 0 0 0 0 0 0 0 0 0 0 0 0 0 0 0 0 0 0 0 0 0 0 0
0 0 0 0 0 0 0 0 0 0 0 0 0 0 0 0 0 0 0 0 0 0 0 0 0 0 0 0 0 0 0 0 0 0 0 0 0 0
0 0 0 0 0 0 0 0 0 0 0 0 0 0 0 0 0 0 0 0 0 0 0 0 0 0 0 0 0 0 0 0 0 0 0 0 0 0
0 0 0 0 0 0 0 0 0 0 0 0 0 0 0 0 0 0 0 0 0 0 0 0 0 0 0 0 0 0 0 0 0 0 0 0 0 0
Height
5682 5680 5679 5677 5676 5674 5672 5671 5669 5668 5667 5665 5663 5660 5658 5657 5655 5653 5651 5650 5648 5646 5645 5644 5643 5642 5642 5641 5641 5641 5641 5641 5641 5641 5641 5642 5642 5643
5670 5669 5667 5665 5663 5661 5660 5658 5656 5655 5654 5653 5650 5648 5646 5644 5642 5640 5638 5637 5635 5633 5632 5631 5630 5629 5628 5628 5627 5627 5627 5627 5627 5627 5627 5628 5628 5629
5658 5656 5654 5652 5651 5649 5647 5645 5643 5641 5640 5639 5637 5635 5633 5631 5629 5627 5625 5623 5621 5620 5618 5617 5616 5615 5614 5613 5613 5612 5612 5612 5612 5612 5612 5613 5614 5614
5645 5643 5641 5639 5637 5635 5633 5631 5630 5627 5626 5625 5624 5621 5619 5616 5615 5613 5611 5609 5607 5606 5604 5603 5602 5601 5600 5599 5598 5597 5597 5597 5597 5597 5598 5599 5599 5599
5632 5630 5628 5625 5624 5621 5619 5617 5615 5613 5612 5610 5609 5607 5605 5602 5600 5599 5597 5595 5593 5591 5590 5588 5587 5586 5585 5584 5583 5582 5582 5582 5582 5582 5582 5583 5583 5584
5619 5617 5615 5612 5610 5608 5606 5604 5601 5599 5597 5595 5594 5593 5590 5588 5586 5584 5582 5580 5579 5577 5575 5574 5573 5571 5570 5569 5568 5567 5567 5566 5566 5566 5567 5567 5568 5568
5606 5604 5602 5599 5597 5595 5592 5590 5587 5585 5583 5581 5579 5578 5576 5573 5571 5569 5568 5566 5564 5562 5560 5559 5558 5557 5555 5554 5552 5551 5551 5551 5551 5551 5551 5552 5552 5553
5594 5591 5589 5586 5584 5581 5579 5576 5574 5571 5569 5567 5565 5563 5561 5559 5557 5555 5553 5552 5551 5549 5546 5544 5542 5541 5540 5539 5537 5536 5535 5535 5535 5535 5535 5536 5537 5537
5581 5579 5576 5573 5571 5568 5566 5563 5560 5557 5555 5553 5551 5549 5546 5545 5543 5541 5538 5537 5535 5533 5531 5530 5527 5526 5524 5523 5522 5521 5520 5519 5519 5519 5519 5520 5521 5521
5569 5566 5564 5561 5558 5556 5553 5551 5548 5545 5542 5540 5537 5535 5532 5530 5528 5526 5524 5522 5521 5518 5516 5515 5513 5511 5509 5507 5506 5504 5503 5503 5503 5503 5503 5504 5505 5506
5556 5554 5551 5549 5546 5544 5541 5539 5536 5533 5529 5526 5524 5521 5518 5516 5514 5512 5510 5508 5507 5504 5501 5500 5499 5497 5495 5492 5490 5488 5487 5487 5486 5486 5487 5488 5488 5490
5544 5542 5539 5537 5534 5532 5529 5527 5524 5521 5518 5515 5512 5509 5506 5503 5500 5498 5496 5494 5492 5491 5488 5486 5484 5482 5481 5479 5476 5474 5472 5471 5471 5470 5471 5471 5472 5473
5532 5530 5527 5525 5523 5520 5518 5515 5512 5509 5506 5503 5500 5497 5494 5491 5488 5485 5483 5481 5479 5477 5475 5472 5470 5467 5466 5465 5463 5461 5459 5458 5457 5456 5456 5456 5456 5457
5520 5518 5516 5514 5511 5509 5506 5504 5501 5498 5495 5492 5488 5485 5482 5479 5476 5473 5470 5468 5466 5464 5461 5458 5457 5455 5453 5451 5450 5449 5447 5445 5444 5443 5442 5442 5442 5442
5509 5507 5505 5502 5500 5498 5495 5493 5490 5486 5483 5480 5477 5473 5470 5467 5464 5461 5458 5456 5453 5450 5448 5446 5444 5443 5441 5439 5438 5437 5435 5434 5432 5431 5430 5429 5429 5429
5498 5496 5494 5491 5489 5487 5484 5481 5478 5475 5472 5468 5465 5461 5458 5455 5452 5449 5447 5444 5442 5439 5436 5434 5432 5431 5429 5427 5426 5425 5423 5422 5421 5419 5418 5418 5417 5417
5487 5485 5483 5481 5479 5476 5474 5470 5467 5464 5460 5457 5453 5450 5447 5444 5441 5438 5435 5432 5430 5428 5426 5423 5421 5419 5417 5416 5415 5413 5412 5410 5409 5408 5408 5407 5406 5406
5477 5475 5473 5471 5468 5466 5463 5460 5456 5453 5449 5446 5442 5439 5436 5433 5430 5427 5424 5422 5419 5417 5415 5413 5410 5408 5407 5405 5404 5402 5401 5399 5398 5397 5396 5396 5397 5396
5467 5465 5463 5460 5458 5455 5452 5449 5446 5442 5439 5436 5432 5429 5426 5423 5419 5417 5414 5412 5409 5407 5405 5402 5400 5398 5397 5396 5394 5392 5390 5389 5388 5388 5387 5386 5387 5387
5457 5455 5452 5450 5447 5445 5442 5439 5436 5433 5429 5426 5423 5419 5416 5413 5410 5407 5405 5402 5400 5398 5395 5392 5390 5388 5387 5385 5384 5383 5381 5380 5379 5379 5378 5377 5377 5377
5447 5444 5442 5440 5438 5435 5432 5429 5427 5424 5420 5417 5414 5410 5407 5404 5401 5399 5396 5394 5391 5389 5386 5384 5381 5379 5377 5376 5376 5375 5373 5371 5370 5370 5369 5368 5368 5368
5437 5435 5433 5430 5428 5426 5423 5420 5417 5415 5411 5408 5405 5402 5398 5395 5393 5390 5388 5385 5383 5380 5378 5376 5373 5371 5370 5369 5368 5367 5366 5364 5363 5361 5360 5359 5359 5359
5428 5425 5423 5421 5419 5416 5414 5411 5409 5406 5402 5399 5396 5393 5390 5387 5384 5382 5380 5377 5375 5373 5371 5368 5366 5364 5363 5362 5361 5360 5359 5357 5356 5355 5354 5352 5352 5351
Wind_Speed
46 46 46 47 47 47 47 46 46 45 45 46 46 46 46 46 46 47 47 47 48 48 48 49 49 50 50 50 51 51 51 51 51 52 52 52 51 51
47 48 48 49 49 49 49 48 47 47 46 46 47 47 47 48 47 48 48 48 48 48 49 49 49 49 50 51 52 52 52 52 52 52 51 52 52 52
48 48 48 49 49 49 49 49 49 49 48 47 48 48 49 49 49 49 49 49 49 49 49 49 49 49 50 51 52 53 53 52 52 53 53 53 53 53
47 48 49 49 49 49 50 50 50 50 50 49 49 50 50 50 50 50 50 49 49 49 49 49 49 50 50 50 51 52 52 52 52 52 53 53 54 54
47 47 48 48 48 49 49 50 51 51 52 51 51 50 50 51 51 51 50 50 50 49 49 50 50 50 51 51 51 51 51 52 52 52 53 53 53 53
45 45 46 47 48 48 49 50 51 51 51 51 50 49 49 50 50 49 49 49 50 50 50 49 49 50 50 51 51 50 50 51 51 51 52 52 52 52
44 44 45 46 46 47 48 48 49 49 48 48 49 49 49 49 49 49 48 48 48 49 49 49 49 50 50 50 50 50 51 51 51 50 51 51 51 51
44 44 44 44 45 45 46 47 47 47 47 48 48 48 49 49 48 48 48 48 48 49 49 50 50 50 50 50 50 50 50 50 50 50 50 50 51 51
42 42 42 42 42 43 44 44 45 46 47 47 47 47 47 47 47 47 48 48 48 49 49 49 50 50 50 49 49 49 50 50 50 50 49 49 50 50
41 41 42 42 42 42 43 43 44 44 45 45 45 45 45 46 46 46 47 47 47 48 49 48 49 49 49 49 49 49 49 50 50 50 49 49 49 49
41 41 41 41 42 42 42 41 41 42 42 43 43 43 44 44 45 45 46 46 45 46 47 46 46 47 47 48 48 48 48 49 49 49 48 48 48 48
40 40 40 40 40 40 39 39 40 40 40 41 41 42 43 43 44 44 44 44 44 44 44 45 45 45 45 45 46 45 45 45 45 46 47 47 47 47
39 39 39 39 39 39 39 39 39 39 40 40 41 41 42 42 42 43 43 43 43 43 43 43 43 43 43 42 43 43 42 42 42 43 43 44 44 45
37 38 38 38 38 38 38 38 39 39 39 39 40 40 41 41 42 42 42 42 43 42 42 41 40 40 40 40 40 39 40 39 39 40 40 41 41 42
37 37 37 37 37 38 38 38 39 39 39 40 40 40 41 41 41 41 41 41 42 41 40 39 38 38 39 38 37 37 37 37 37 37 38 38 38 38
36 36 37 37 37 37 38 38 38 39 39 39 39 40 40 40 40 40 40 40 40 39 38 38 38 38 38 37 36 36 36 36 36 35 36 36 35 35
35 36 36 36 36 37 37 38 38 38 38 38 38 39 39 39 39 39 38 38 38 37 37 37 37 37 37 36 36 35 34 34 34 34 33 33 34 33
34 35 35 35 35 36 36 36 37 37 37 37 37 37 38 38 37 37 36 36 36 35 35 36 36 35 34 34 34 34 33 33 32 32 32 31 31 31
34 33 34 34 35 35 35 35 35 35 35 35 35 35 36 35 35 34 34 34 33 34 34 34 34 33 33 33 32 32 32 31 30 30 29 29 29 29
33 33 33 33 33 34 33 33 33 33 33 33 34 34 34 34 33 32 32 31 32 32 32 32 32 32 31 31 30 29 29 28 28 28 28 28 28 28
32 32 32 32 32 32 32 32 32 32 32 32 33 33 33 32 31 31 31 31 31 31 30 30 30 30 29 28 26 26 26 27 27 26 26 26 27 27
30 31 31 31 30 30 31 31 32 32 32 32 32 32 32 31 30 30 30 29 29 29 29 28 28 27 26 25 24 24 24 25 25 25 25 25 24 24
30 30 30 30 30 30 31 31 31 31 31 31 31 30 30 29 29 28 28 28 27 27 26 25 25 24 23 23 23 22 23 23 23 23 22 22 21 21
Wind_Direction
276 276 277 277 277 277 278 279 278 278 277 277 277 278 278 279 279 278 278 278 277 276 275 274 273 271 270 270 270 270 269 269 269 268 266 266 266 267
276 276 276 276 277 278 279 278 278 279 278 277 277 278 278 278 279 278 278 278 277 276 275 274 273 273 271 271 271 270 270 270 269 268 267 266 266 266
275 275 276 277 278 278 278 278 278 279 278 278 278 278 278 278 279 279 278 278 278 277 275 275 273 274 274 273 272 271 271 270 269 268 267 266 265 266
277 277 277 277 278 278 278 278 278 278 278 278 278 279 279 279 279 279 279 278 277 277 276 275 274 275 275 274 273 272 271 270 269 268 267 267 266 266
278 278 278 278 278 278 278 278 278 277 277 278 278 279 280 280 279 279 278 278 278 277 277 276 276 275 276 275 274 272 271 270 269 269 268 267 266 265
280 280 280 279 278 279 279 279 279 278 278 278 278 279 279 280 279 279 278 278 278 278 278 277 277 276 276 276 274 272 271 270 269 269 268 268 266 266
280 281 280 279 279 280 280 280 280 279 278 278 278 279 279 278 279 279 279 279 279 278 278 277 277 276 276 276 274 272 271 270 270 269 268 267 266 266
281 280 280 280 280 281 281 280 279 279 279 279 280 280 279 279 279 279 279 279 279 278 278 277 277 277 277 276 275 273 272 271 269 269 268 267 266 265
281 280 280 280 281 282 282 281 280 280 280 281 281 280 280 280 280 280 279 279 279 279 278 278 277 277 277 277 276 273 272 271 270 270 269 267 266 265
282 282 281 280 280 280 281 281 281 282 283 283 283 283 282 281 281 281 280 280 279 280 280 279 278 278 277 277 276 275 273 272 272 270 269 268 267 267
282 282 282 282 281 281 281 283 284 285 285 285 284 284 283 283 283 283 282 281 281 281 280 279 278 278 278 278 277 276 276 275 273 270 269 268 268 267
282 282 282 282 282 283 284 285 286 287 287 286 286 285 285 284 284 284 284 283 283 282 281 281 280 279 278 277 278 277 277 276 274 271 270 269 268 267
281 281 282 282 283 284 286 287 288 288 288 287 286 286 286 285 285 285 284 284 284 284 283 282 281 280 279 278 277 276 277 276 275 273 271 270 268 267
282 282 282 283 283 285 286 288 289 290 289 288 287 286 286 285 284 284 284 285 285 285 283 282 281 280 280 279 277 276 277 277 276 274 272 271 269 268
282 282 282 283 283 284 286 288 289 289 290 288 287 287 286 285 285 284 284 285 286 286 284 282 281 281 282 281 278 278 278 278 277 275 273 271 270 268
281 282 283 283 284 285 287 288 289 289 290 289 288 287 286 286 286 286 285 285 285 285 285 283 282 283 282 281 280 280 280 279 277 274 272 272 270 268
281 282 282 282 284 286 287 289 290 290 289 289 288 287 286 287 287 286 286 285 284 284 284 284 284 283 282 282 281 281 280 279 278 276 273 271 270 269
281 282 282 283 284 286 288 289 290 291 290 290 289 289 288 288 287 287 286 286 285 285 285 285 285 284 283 283 282 281 280 279 278 277 275 273 270 268
282 283 283 284 285 287 288 289 290 291 290 290 290 290 289 289 288 287 286 286 286 286 287 287 287 285 284 284 282 280 279 278 277 276 275 273 270 267
283 284 285 285 286 287 288 289 290 290 291 292 291 291 290 289 288 287 287 287 287 288 289 288 288 287 285 283 281 278 277 277 277 277 275 272 270 268
283 285 286 287 288 288 289 289 290 291 292 292 292 291 291 290 289 288 288 288 289 289 290 289 289 287 286 283 280 277 276 276 277 278 276 273 270 268
285 286 287 288 288 288 289 290 291 292 293 293 293 293 293 291 290 289 289 290 290 291 291 290 289 287 285 282 280 278 277 278 279 279 277 274 272 270
286 287 287 287 287 288 289 291 292 293 293 292 292 293 293 293 291 290 289 290 291 291 291 290 289 288 285 282 280 279 279 279 278 277 274 271 271 271